Weather reports worldwide

Advertisment
Capo Palinuro, Italy (16310): temperature & dewpoint: 12.01.2020 12:00:00 - 18.01.2020 12:00:00 (CET)Capo Palinuro, Italy (16310): wind speed: 12.01.2020 12:00:00 - 18.01.2020 12:00:00 (CET)Capo Palinuro, Italy (16310): wind direction: 12.01.2020 12:00:00 - 18.01.2020 12:00:00 (CET)Capo Palinuro, Italy (16310): reduced air pressure: 12.01.2020 12:00:00 - 18.01.2020 12:00:00 (CET)Capo Palinuro, Italy (16310): visibility: 12.01.2020 12:00:00 - 18.01.2020 12:00:00 (CET)Capo Palinuro, Italy (16310): sunshine duration: 12.01.2020 12:00:00 - 18.01.2020 12:00:00 (CET)
Date & Time tt [°C] td [°C] ff [km/h] ff [kn] dd ppp [hPa] vv [km] sd [min]
18.01.2020 12:00:00 13,2 10,2 0 0 N 1023,2 12 -
18.01.2020 11:00:00 11,8 8,5 9 5 NNE 1024,3 15 0
18.01.2020 10:00:00 10,0 7,6 9 5 NNE 1024,4 15 12
18.01.2020 09:00:00 10,0 7,1 8 4 W 1024,5 12 0
18.01.2020 08:00:00 10,6 8,5 8 4 SSW 1024,5 15 0
18.01.2020 07:00:00 10,2 9,3 9 5 ESE 1024,5 10 0
18.01.2020 06:00:00 10,2 8,1 8 4 ESE 1024,9 20 -
18.01.2020 05:00:00 10,2 7,8 8 4 SE 1025,3 20 -
18.01.2020 04:00:00 10,2 7,6 9 5 E 1025,4 20 -
18.01.2020 03:00:00 10,4 7,8 5 3 ESE 1025,5 20 -
18.01.2020 02:00:00 10,2 7,3 8 4 E 1025,6 20 -
18.01.2020 01:00:00 10,6 7,3 8 4 E 1025,8 20 -
18.01.2020 00:00:00 10,4 7,1 9 5 ENE 1025,9 20 -
17.01.2020 23:00:00 10,4 7,1 9 5 ENE 1025,9 15 -
17.01.2020 22:00:00 10,0 8,1 9 5 NE 1025,8 15 -
17.01.2020 21:00:00 10,0 7,9 5 3 NNE 1025,7 15 -
17.01.2020 20:00:00 10,4 8,0 8 4 NNE 1025,6 15 -
17.01.2020 19:00:00 11,0 8,0 5 3 NW 1025,4 15 -
17.01.2020 18:00:00 11,0 8,9 5 3 NNE 1025,5 15 -
17.01.2020 17:00:00 11,4 8,4 8 4 NNE 1025,4 15 30
17.01.2020 16:00:00 12,4 8,3 8 4 NNE 1025,4 15 60
17.01.2020 15:00:00 13,2 8,9 5 3 N 1025,5 15 60
17.01.2020 14:00:00 13,4 9,1 8 4 NNE 1026,1 18 60
17.01.2020 13:00:00 12,8 8,5 9 5 ENE 1026,4 20 60
17.01.2020 12:00:00 13,0 9,2 8 4 SSW 1026,4 15 60
17.01.2020 11:00:00 13,0 9,1 5 3 S 1026,3 15 60
17.01.2020 10:00:00 11,0 8,0 8 4 E 1026,6 20 30
17.01.2020 09:00:00 10,2 7,6 13 7 E 1026,5 20 48
17.01.2020 08:00:00 9,8 8,1 8 4 ENE 1026,5 20 30
17.01.2020 07:00:00 9,8 8,1 9 5 NNW 1026,4 20 -
17.01.2020 06:00:00 9,0 7,3 8 4 NNW 1026,6 20 -
17.01.2020 05:00:00 - - - - - - - -
17.01.2020 04:00:00 10,0 7,6 9 5 NW 1026,5 20 -
17.01.2020 03:00:00 10,0 7,8 8 4 NE 1026,8 20 -
17.01.2020 02:00:00 10,0 7,8 5 3 NNW 1026,9 20 -
17.01.2020 01:00:00 9,8 7,9 4 2 ENE 1026,9 20 -
17.01.2020 00:00:00 9,8 7,9 4 2 NE 1027,0 20 -
16.01.2020 23:00:00 10,0 8,1 11 6 NNE 1026,7 20 -
16.01.2020 22:00:00 10,0 7,9 9 5 NNE 1026,7 20 -
16.01.2020 21:00:00 11,0 8,2 8 4 ENE 1026,6 20 -
16.01.2020 20:00:00 11,0 7,9 11 6 N 1026,7 20 -
16.01.2020 19:00:00 11,0 8,0 9 5 N 1026,8 20 -
16.01.2020 18:00:00 11,0 8,0 11 6 NW 1026,8 20 -
16.01.2020 17:00:00 11,8 8,8 15 8 NW 1027,1 20 -
16.01.2020 16:00:00 12,4 8,5 13 7 ENE 1027,2 20 60
16.01.2020 15:00:00 13,0 6,8 11 6 N 1027,9 20 60
16.01.2020 14:00:00 13,0 7,2 13 7 ENE 1028,2 20 60
16.01.2020 13:00:00 13,0 7,2 13 7 NE 1028,2 20 60
16.01.2020 12:00:00 13,0 7,2 9 5 ENE 1028,2 20 60
16.01.2020 11:00:00 13,0 6,8 15 8 E 1027,8 20 60
16.01.2020 10:00:00 11,6 5,0 8 4 NE 1027,8 20 60
16.01.2020 09:00:00 10,6 4,7 9 5 NNE 1027,8 20 60
16.01.2020 08:00:00 9,0 5,5 9 5 N 1027,8 20 30
16.01.2020 07:00:00 8,8 6,3 11 6 SW 1027,7 20 -
16.01.2020 06:00:00 9,0 6,6 8 4 NE 1028,2 20 -
16.01.2020 05:00:00 9,6 7,4 8 4 NNE 1028,1 20 -
16.01.2020 04:00:00 10,6 8,2 8 4 ENE 1028,0 20 -
16.01.2020 03:00:00 10,8 8,2 8 4 SSE 1028,0 20 -
16.01.2020 02:00:00 10,8 8,2 8 4 ENE 1028,0 20 -
16.01.2020 01:00:00 11,0 8,0 8 4 E 1028,0 20 -
16.01.2020 00:00:00 11,0 7,7 9 5 SSE 1028,0 20 -
15.01.2020 23:00:00 11,0 8,4 8 4 ESE 1027,9 20 -
15.01.2020 22:00:00 10,6 8,4 0 0 N 1027,8 20 -
15.01.2020 21:00:00 11,2 8,1 0 0 N 1027,6 20 -
15.01.2020 20:00:00 11,2 7,9 0 0 N 1027,6 20 -
15.01.2020 19:00:00 11,0 9,2 0 0 N 1027,5 20 -
15.01.2020 18:00:00 11,2 9,6 8 4 NNW 1027,5 20 -
15.01.2020 17:00:00 12,0 10,1 8 4 NW 1027,4 20 18
15.01.2020 16:00:00 13,0 10,7 0 0 N 1027,4 20 60
15.01.2020 15:00:00 13,6 10,4 0 0 N 1027,3 20 60
15.01.2020 14:00:00 14,0 10,4 5 3 WSW 1027,4 20 60
15.01.2020 13:00:00 13,8 10,6 8 4 SW 1027,5 20 60
15.01.2020 12:00:00 14,0 10,2 8 4 SW 1027,5 20 60
15.01.2020 11:00:00 13,8 8,4 0 0 WSW 1027,4 20 60
15.01.2020 10:00:00 12,2 6,5 0 0 N 1027,3 20 60
15.01.2020 09:00:00 11,2 6,9 8 4 WNW 1027,2 20 60
15.01.2020 08:00:00 11,0 8,7 5 3 WNW 1027,0 20 24
15.01.2020 07:00:00 10,8 9,1 0 0 N 1026,8 20 -
15.01.2020 06:00:00 11,0 8,4 0 0 N 1026,8 20 -
15.01.2020 05:00:00 11,0 9,4 0 0 N 1026,8 20 -
15.01.2020 04:00:00 11,0 9,2 4 2 WNW 1027,0 20 -
15.01.2020 03:00:00 11,0 8,9 4 2 NW 1027,0 20 -
15.01.2020 02:00:00 10,8 8,5 0 0 N 1027,0 20 -
15.01.2020 01:00:00 11,2 9,8 0 0 N 1027,0 20 -
15.01.2020 00:00:00 11,2 9,8 0 0 N 1026,9 20 -
14.01.2020 23:00:00 11,2 9,6 0 0 N 1026,7 20 -
14.01.2020 22:00:00 11,0 9,2 9 5 ESE 1026,7 20 -
14.01.2020 21:00:00 11,2 9,5 9 5 SSE 1026,5 20 -
14.01.2020 20:00:00 11,4 9,7 11 6 SE 1026,3 20 -
14.01.2020 19:00:00 12,0 9,5 11 6 SE 1025,7 20 -
14.01.2020 18:00:00 12,0 8,7 9 5 SE 1025,4 20 -
14.01.2020 17:00:00 12,0 8,8 11 6 ESE 1025,4 20 42
14.01.2020 16:00:00 12,6 10,5 11 6 SE 1025,4 20 60
14.01.2020 15:00:00 13,0 10,0 11 6 SSW 1025,3 20 60
14.01.2020 14:00:00 13,4 10,2 11 6 SSW 1025,3 20 60
14.01.2020 13:00:00 13,2 9,5 9 5 ESE 1025,5 20 60
14.01.2020 12:00:00 13,0 8,9 5 3 ESE 1025,5 20 60
14.01.2020 11:00:00 12,0 8,1 9 5 NNE 1025,6 20 -
14.01.2020 10:00:00 12,0 8,7 4 2 N 1025,3 20 60
14.01.2020 09:00:00 11,0 8,4 0 0 N 1025,2 20 60
14.01.2020 08:00:00 11,0 9,4 9 5 NNE 1024,6 20 60
14.01.2020 07:00:00 11,0 9,1 0 0 N 1024,2 20 0
14.01.2020 06:00:00 11,0 9,1 0 0 N 1024,2 20 -
14.01.2020 05:00:00 10,8 8,7 9 5 NNE 1024,2 20 -
14.01.2020 04:00:00 11,0 8,9 0 0 N 1024,2 20 -
14.01.2020 03:00:00 11,0 8,7 0 0 N 1024,2 20 -
14.01.2020 02:00:00 10,8 7,1 9 5 NNE 1024,2 20 -
14.01.2020 01:00:00 10,8 7,1 0 0 N 1024,2 20 -
14.01.2020 00:00:00 11,0 7,9 8 4 NNE 1024,2 20 -
13.01.2020 23:00:00 11,0 7,7 0 0 N 1024,2 20 -
13.01.2020 22:00:00 11,2 7,5 9 5 NNE 1024,2 20 -
13.01.2020 21:00:00 11,8 7,5 0 0 N 1024,2 20 -
13.01.2020 20:00:00 11,0 8,6 9 5 NNE 1024,2 20 -
13.01.2020 19:00:00 11,0 9,4 0 0 N 1024,2 20 -
13.01.2020 18:00:00 12,0 9,9 9 5 NNE 1024,4 20 -
13.01.2020 17:00:00 12,0 9,4 0 0 N 1024,4 20 12
13.01.2020 16:00:00 13,2 8,7 11 6 NNE 1024,3 20 60
13.01.2020 15:00:00 13,6 7,6 9 5 NNE 1024,2 20 60
13.01.2020 14:00:00 14,0 8,4 0 0 N 1024,2 20 60
13.01.2020 13:00:00 14,0 7,5 0 0 N 1024,2 20 60
13.01.2020 12:00:00 13,2 6,5 0 0 N 1024,3 20 60
13.01.2020 11:00:00 13,0 6,6 0 0 N 1024,3 20 60
13.01.2020 10:00:00 12,0 6,3 5 3 ENE 1023,9 20 60
13.01.2020 09:00:00 10,4 6,2 5 3 NNE 1023,9 20 12
13.01.2020 08:00:00 10,2 5,4 5 3 E 1023,9 20 0
13.01.2020 07:00:00 10,2 5,6 8 4 ENE 1023,9 20 0
13.01.2020 06:00:00 10,2 6,0 5 3 N 1023,9 20 -
13.01.2020 05:00:00 10,2 5,4 5 3 N 1024,0 20 -
13.01.2020 04:00:00 10,2 6,0 8 4 NNE 1024,0 20 -
13.01.2020 03:00:00 10,4 6,4 8 4 N 1024,0 20 0
13.01.2020 02:00:00 11,0 6,5 5 3 N 1023,9 20 -
13.01.2020 01:00:00 11,2 6,1 8 4 NNE 1023,9 20 -
13.01.2020 00:00:00 11,6 6,9 8 4 N 1023,9 20 -
12.01.2020 23:00:00 11,8 6,5 5 3 N 1023,7 20 -
12.01.2020 22:00:00 11,8 6,3 9 5 N 1023,7 20 -
12.01.2020 21:00:00 11,8 6,3 5 3 NNW 1023,6 20 -
12.01.2020 20:00:00 11,8 7,1 5 3 N 1023,4 20 -
12.01.2020 19:00:00 12,0 8,3 0 0 N 1023,3 20 0
12.01.2020 18:00:00 12,0 7,7 0 0 N 1023,2 20 -
12.01.2020 17:00:00 12,2 8,1 5 3 N 1023,0 20 12
12.01.2020 16:00:00 12,8 7,9 0 0 N 1023,0 20 60
12.01.2020 15:00:00 13,6 6,7 0 0 N 1023,0 20 60
12.01.2020 14:00:00 14,2 5,5 8 4 NNE 1023,1 20 60
12.01.2020 13:00:00 14,0 5,1 8 4 S 1023,6 20 60
12.01.2020 12:00:00 13,8 5,2 5 3 SSW 1023,7 20 60

tt = temperature
td = dewpoint
ff = wind speed
dd = wind direction
ppp = reduced air pressure
vv = visibility
sd = sunshine duration

Next stations